Location: Nairn
(57.5833°N, 3.8667°W)
Time: 02:46:23
(UTC+00:00)

Cosmos 1626 Rocket - Pass Details

Date: 07 August 2020
Orbit: 603 x 631 km, 82.5° (Epoch: 27 September)

Event Time Altitude Azimuth Distance (km) Brightness Sun altitude
Rises 03:04:50 0° 347° (NNW) 2,887 7.6 -8.7°
Reaches altitude 10° 03:07:04 10° 348° (NNW) 1,975 6.7 -8.5°
Maximum altitude 03:11:27 84° 75° (ENE) 618 3.6 -8.2°
Drops below altitude 10° 03:15:47 10° 166° (SSE) 1,951 5.8 -7.8°
Sets 03:17:58 0° 167° (SSE) 2,849 6.6 -7.6°
